User: anonymous   Login
Location: Mercogliano
(40.9167°N, 14.7333°E)
Time: 12:45:25
(UTC+00:00)
Language:

Cosmos 2026 Rocket - Orbit

View from above orbital plane
View from above orbital plane
View from above satellite
View from above satellite

Ground track
Ground track

The orbit data is extracted from the following two-line orbital elements,

1 20046U 89042B   21135.87842855  .00000128  00000-0  11092-3 0  9991
2 20046  82.9348 318.3722 0042536  24.0063 336.3065 13.78228480605830
Epoch (UTC): 15 May 2021 21:04:56
Eccentricity: 0.0042536
inclination: 82.9348°
perigee height: 939 km
apogee height: 1001 km
right ascension of ascending node: 318.3722°
argument of perigee: 24.0063°
revolutions per day: 13.78228480
mean anomaly at epoch: 336.3065°
orbit number at epoch: 60583

The dashed part of the orbit path shows where the satellite is in the earth's shadow,  

DLR